[[{"header":{"parameterUnit":"m.s-1","parameterCategory":1,"la1":30.2992,"la2":30.254,"lo1":-89.0895,"lo2":-89.0443,"dy":0.0025,"dx":0.0025,"nx":19,"ny":19,"refTime":"2026-03-23T21:00:00:Z","depth":0,"parameterNumber":2,"parameterNumberName":"U-component_of_WINDS"},"data":[0,0,0,-1.7137,-1.7137,-1.7146,-1.7145,-1.7178,-1.7179,0,0,0,0,0,0,0,0,0,0,0,-1.7144,-1.7145,-1.7136,-1.7137,-1.7146,-1.7145,-1.7178,-1.7179,0,0,0,0,0,0,0,0,0,0,0,-1.7144,-1.7145,-1.7145,-1.7137,-1.7146,-1.7145,-1.7178,-1.7164,0,0,0,0,0,0,0,0,0,0,-1.7153,-1.7169,-1.7145,-1.7145,-1.7137,-1.7146,-1.7145,-1.7164,-1.7165,-1.7183,0,-1.7199,0,-1.719,-1.7182,-1.7182,0,0,0,-1.713,-1.7168,-1.7161,-1.7146,-1.7137,-1.7146,-1.714,-1.7164,-1.7166,-1.7186,-1.72,-1.72,-1.719,-1.7183,-1.7183,-1.7307,-1.7308,0,0,-1.7129,-1.7152,-1.7159,-1.7163,-1.716,-1.7139,-1.714,-1.7165,-1.7183,-1.72,-1.7201,-1.7191,-1.7183,-1.7183,-1.7306,-1.7307,0,0,0,-1.7133,-1.7152,-1.7144,-1.7162,-1.7162,-1.714,-1.714,-1.7181,-1.7177,-1.7201,-1.7191,-1.7183,-1.7184,-1.7305,-1.7306,-1.7375,0,0,0,-1.7132,-1.7154,-1.7144,-1.7158,-1.7161,-1.7171,-1.7157,-1.7175,-1.7177,-1.7191,-1.7183,-1.7184,-1.7304,-1.7306,-1.737,-1.7403,0,0,0,-1.714,-1.7155,-1.7159,-1.7159,-1.7163,-1.717,-1.7167,-1.7175,-1.7172,-1.7182,-1.7184,-1.7303,-1.7305,-1.7367,-1.7397,-1.7444,0,0,0,-1.7156,-1.7219,-1.7161,-1.7228,-1.7163,-1.7212,-1.7166,-1.7201,-1.7218,-1.7183,-1.7304,-1.7306,-1.7365,-1.7393,-1.744,-1.7488,-1.751,0,0,-1.7248,-1.7231,-1.7268,-1.7217,-1.7281,-1.7208,-1.7284,-1.7278,-1.7259,-1.7293,-1.7295,-1.7372,-1.7396,-1.7443,-1.7623,-1.764,0,0,0,-1.7305,-1.7333,-1.7345,-1.7362,-1.736,-1.7362,-1.7342,-1.7341,-1.7369,-1.728,-1.74,-1.7414,-1.7441,-1.7463,-1.7478,-1.75,-1.7317,-1.7317,-1.7316,-1.7467,-1.744,-1.7502,-1.7477,-1.7495,-1.7477,-1.749,-1.7486,-1.7451,-1.7481,-1.7491,-1.7603,-1.7629,-1.764,-1.7664,-1.7513,-1.7514,-1.7514,-1.7514,-1.7601,-1.7637,-1.7593,-1.7637,-1.761,-1.7648,-1.7635,-1.7611,-1.7644,-1.7592,-1.7614,-1.7561,-1.766,-1.768,-1.7519,-1.7518,-1.7517,-1.7517,-1.7517,-1.7704,-1.7717,-1.7715,-1.774,-1.7764,-1.7737,-1.7772,-1.7745,-1.7721,-1.7743,-1.7752,-1.7751,-1.7748,-1.7749,-1.775,-1.775,-1.775,-1.7751,-1.7751,-1.7813,-1.7808,-1.784,-1.7846,-1.7856,-1.7866,-1.7851,-1.7861,-1.7866,-1.7844,-1.7844,-1.7811,-1.7674,-1.7642,-1.7757,-1.7756,-1.7755,-1.7754,-1.7754,-1.7959,-1.7922,-1.7971,-1.7982,-1.7989,-1.8016,-1.7983,-1.8007,-1.8011,-1.8031,-1.7993,-1.7896,-1.7877,-1.7865,-1.7838,-1.7997,-1.7997,-1.7997,-1.7997,-1.8047,-1.8035,-1.8081,-1.81,-1.8116,-1.8092,-1.8153,-1.8145,-1.8131,-1.8133,-1.8107,-1.8068,-1.8057,-1.8044,-1.8029,-1.8003,-1.82,-1.82,-1.8201,-1.8137,-1.8126,-1.818,-1.8165,-1.817,-1.8176,-1.8234,-1.8261,-1.8237,-1.8208,-1.8135,-1.8127,-1.8064,-1.8045,-1.8013,-1.7989,-1.7941,0,0]},{"header":{"parameterUnit":"m.s-1","parameterCategory":1,"la1":30.2992,"la2":30.254,"lo1":-89.0895,"lo2":-89.0443,"dy":0.0025,"dx":0.0025,"nx":19,"ny":19,"refTime":"2026-03-23T21:00:00:Z","depth":0,"parameterNumber":3,"parameterNumberName":"V-component_of_WINDS"},"data":[0,0,0,2.7201,2.72,2.7169,2.7169,2.7112,2.7111,0,0,0,0,0,0,0,0,0,0,0,2.7203,2.7203,2.7201,2.72,2.7169,2.7169,2.7112,2.7111,0,0,0,0,0,0,0,0,0,0,0,2.7203,2.7203,2.7202,2.72,2.7169,2.7169,2.7112,2.7141,0,0,0,0,0,0,0,0,0,0,2.7174,2.717,2.7203,2.7202,2.72,2.7169,2.7169,2.7143,2.7139,2.7119,0,2.7103,0,2.7106,2.7106,2.7106,0,0,0,2.7205,2.7172,2.7171,2.7202,2.72,2.7169,2.7184,2.7141,2.7137,2.7115,2.7102,2.71,2.7105,2.7106,2.7106,2.6981,2.698,0,0,2.7207,2.7193,2.7174,2.7168,2.7175,2.7185,2.7183,2.7139,2.7123,2.7102,2.7099,2.7104,2.7105,2.7105,2.6981,2.698,0,0,0,2.7208,2.7194,2.7194,2.717,2.7166,2.7184,2.7182,2.7125,2.7126,2.7099,2.7103,2.7105,2.7104,2.6982,2.6981,2.6926,0,0,0,2.721,2.7195,2.7194,2.7185,2.7166,2.7146,2.7169,2.7129,2.7125,2.7104,2.7105,2.7104,2.6983,2.6982,2.6929,2.69,0,0,0,2.7208,2.7195,2.7188,2.7185,2.7171,2.7147,2.7145,2.7129,2.7127,2.7106,2.7103,2.6984,2.6982,2.6932,2.6906,2.686,0,0,0,2.7201,2.7141,2.7187,2.7122,2.7171,2.7115,2.7146,2.7104,2.708,2.7105,2.6983,2.6981,2.6933,2.6909,2.6863,2.6816,2.6797,0,0,2.7117,2.713,2.7093,2.7133,2.7064,2.712,2.7042,2.7033,2.7043,2.7,2.6997,2.6928,2.6906,2.6861,2.67,2.6684,0,0,0,2.7061,2.7033,2.7018,2.6995,2.6987,2.6976,2.6981,2.6976,2.6941,2.7019,2.6902,2.689,2.6863,2.6841,2.6828,2.6804,2.6972,2.6972,2.6972,2.692,2.6937,2.6874,2.6887,2.6864,2.6868,2.6849,2.6844,2.6868,2.684,2.6826,2.6727,2.67,2.669,2.6665,2.6806,2.6806,2.6806,2.6806,2.6795,2.6756,2.679,2.6741,2.6758,2.6716,2.6716,2.6734,2.6695,2.6739,2.6717,2.676,2.6673,2.6651,2.6802,2.6803,2.6803,2.6803,2.6804,2.6701,2.6685,2.6682,2.6648,2.662,2.6635,2.6595,2.6613,2.6629,2.6608,2.6591,2.6592,2.6591,2.66,2.66,2.6599,2.6599,2.6599,2.6598,2.6602,2.6601,2.6566,2.6552,2.6538,2.6521,2.6524,2.6509,2.6497,2.6513,2.6513,2.6535,2.6664,2.6692,2.6593,2.6594,2.6595,2.6595,2.6596,2.646,2.6495,2.6442,2.6427,2.641,2.6378,2.6403,2.6371,2.6361,2.634,2.6369,2.6462,2.6476,2.6486,2.651,2.6369,2.6369,2.6369,2.6369,2.6377,2.6387,2.6334,2.631,2.6288,2.6304,2.6237,2.6238,2.6243,2.6237,2.6262,2.6296,2.6306,2.6313,2.6328,2.635,2.6171,2.6171,2.6171,2.6288,2.6297,2.6238,2.6247,2.6234,2.6221,2.6158,2.6125,2.6139,2.6163,2.6232,2.624,2.6296,2.6315,2.6336,2.6358,2.6399,0,0]}]]